KC2EXG-9 Weather Reports


Display with metric or nautical units.
time (UTC)temp
F
wind
direction
speed
MPH
gust
MPH
rain 1hr
in
rain 24hr
in
rain mn
in
humidity
%
barometer
mb
20260505102016 63 180 7.0 13.0 0.00 0.01 0.01 73 1002.3
20260505101016 62 203 2.0 4.0 0.00 0.01 0.01 75 1002.3
20260505100016 61 225 3.0 7.0 0.00 0.01 0.01 76 1002.3
20260505095036 61 180 4.0 12.0 0.00 0.01 0.01 77 1002.3
20260505094016 61 180 4.0 7.0 0.00 0.01 0.01 78 1002.2
20260505093016 60 180 4.0 7.0 0.00 0.01 0.01 81 1002.2
20260505092036 60 180 5.0 9.0 0.00 0.01 0.01 83 1002.1
20260505091016 58 180 5.0 9.0 0.00 0.01 0.01 88 1002.5
20260505090016 57 180 2.0 3.0 0.00 0.01 0.01 90 1002.4
20260505085016 56 180 1.0 2.0 0.00 0.01 0.01 91 1002.6
20260505084016 56 180 2.0 3.0 0.00 0.01 0.01 91 1002.7
20260505083016 56 0.0 2.0 0.00 0.01 0.01 91 1002.8
20260505082016 57 180 1.0 2.0 0.00 0.01 0.01 91 1002.8
20260505081016 57 180 1.0 1.0 0.00 0.01 0.01 90 1002.9
20260505080016 58 180 1.0 2.0 0.01 0.01 0.01 89 1003.1
20260505075016 58 0.0 0.0 0.01 0.01 0.01 89 1003.1
20260505074016 58 0.0 0.0 0.01 0.01 0.01 88 1003.3
20260505073016 59 0.0 0.0 0.01 0.01 0.01 86 1003.4
20260505072036 59 0.0 0.0 0.01 0.01 0.01 84 1003.2
20260505071016 60 180 3.0 3.0 0.01 0.01 0.01 81 1003.3
20260505070016 62 180 5.0 8.0 0.00 0.00 0.00 75 1003.3
20260505065016 63 225 3.0 8.0 0.00 0.00 0.00 72 1003.7
20260505064016 62 203 4.0 9.0 0.00 0.00 0.00 71 1003.5
20260505063016 62 180 4.0 5.0 0.00 0.00 0.00 71 1003.4
20260505062016 62 203 2.0 4.0 0.00 0.00 0.00 71 1003.4
20260505061015 62 203 3.0 5.0 0.00 0.00 0.00 70 1003.3
20260505060016 63 203 4.0 5.0 0.00 0.00 0.00 70 1003.4
20260505055016 63 203 3.0 4.0 0.00 0.00 0.00 70 1003.4
20260505054015 63 203 2.0 3.0 0.00 0.00 0.00 69 1003.5
20260505053035 63 180 2.0 5.0 0.00 0.00 0.00 69 1003.6
20260505052016 63 180 4.0 8.0 0.00 0.00 0.00 68 1003.4
20260505051015 63 180 7.0 10.0 0.00 0.00 0.00 67 1003.4
20260505041015 63 203 3.0 4.0 0.00 0.00 0.00 62 1003.7
20260505040111 63 203 3.0 6.0 0.00 0.00 0.00 64 1003.6
20260505035016 63 180 4.0 5.0 0.00 0.00 0.00 64 1003.8
20260505034016 63 203 2.0 3.0 0.00 0.00 0.00 63 1003.8
20260505033017 64 225 1.0 3.0 0.00 0.00 0.00 59 1003.9
20260505032017 61 180 2.0 3.0 0.00 0.00 0.00 60 1004.0
20260505031017 57 203 3.0 10.0 0.00 0.00 0.00 71 1003.6
20260505030016 57 0.0 0.0 0.00 0.00 0.00 70 1003.5
20260505025016 57 0.0 0.0 0.00 0.00 0.00 70 1003.5
20260505024017 56 0.0 0.0 0.00 0.00 0.00 70 1003.4
20260505023016 56 0.0 0.0 0.00 0.00 0.00 68 1003.4
20260505022036 57 0.0 0.0 0.00 0.00 0.00 67 1003.5
20260505021016 57 0.0 0.0 0.00 0.00 0.00 66 1003.6
20260505020016 57 0.0 0.0 0.00 0.00 0.00 66 1003.7
20260505015016 58 0.0 0.0 0.00 0.00 0.00 65 1003.8
20260505014016 58 0.0 0.0 0.00 0.00 0.00 64 1003.8
20260505013016 59 0.0 0.0 0.00 0.00 0.00 62 1003.7
20260505012036 60 0.0 0.0 0.00 0.00 0.00 60 1003.6
20260505011016 60 0.0 0.0 0.00 0.00 0.00 59 1003.5
20260505010016 61 0.0 0.0 0.00 0.00 0.00 58 1003.4
20260505005016 62 0.0 0.0 0.00 0.00 0.00 56 1003.5
20260505004016 63 0.0 0.0 0.00 0.00 0.00 54 1003.4
20260505003016 64 0.0 0.0 0.00 0.00 0.00 51 1003.5
20260505002016 66 0.0 0.0 0.00 0.00 0.00 49 1003.5
20260505001016 67 0.0 0.0 0.00 0.00 0.00 45 1003.7
20260505000036 69 0.0 0.0 0.00 0.00 0.00 43 1003.6
20260504235016 70 0.0 0.0 0.00 0.00 0.00 42 1003.5
20260504234016 70 0.0 0.0 0.00 0.00 0.00 41 1003.5
20260504233036 71 338 1.0 3.0 0.00 0.00 0.00 40 1003.4
20260504232016 72 225 3.0 5.0 0.00 0.00 0.00 38 1003.4
20260504231016 73 203 1.0 2.0 0.00 0.00 0.00 36 1003.3
20260504230016 73 225 1.0 2.0 0.00 0.00 0.00 36 1003.4
20260504225016 73 203 1.0 2.0 0.00 0.00 0.00 36 1003.3
20260504224016 73 203 5.0 8.0 0.00 0.00 0.00 35 1003.2
20260504223016 74 203 3.0 5.0 0.00 0.00 0.00 34 1003.3
20260504222016 74 225 3.0 7.0 0.00 0.00 0.00 34 1003.2
20260504221016 74 203 1.0 1.0 0.00 0.00 0.00 35 1003.3
20260504220016 74 203 3.0 5.0 0.00 0.00 0.00 34 1003.3
20260504215016 75 225 4.0 9.0 0.00 0.00 0.00 35 1003.4
20260504214016 75 180 5.0 6.0 0.00 0.00 0.00 35 1003.4
20260504213015 75 180 5.0 7.0 0.00 0.00 0.00 36 1003.5
20260504212036 75 180 6.0 10.0 0.00 0.00 0.00 34 1003.6
20260504211016 75 225 4.0 6.0 0.00 0.00 0.00 37 1003.5
20260504210036 75 225 3.0 7.0 0.00 0.00 0.00 37 1003.7
20260504205016 75 225 5.0 12.0 0.00 0.00 0.00 36 1003.7
20260504204035 74 203 5.0 6.0 0.00 0.00 0.00 36 1003.9
20260504203036 75 225 2.0 5.0 0.00 0.00 0.00 36 1003.9
20260504202015 75 203 3.0 8.0 0.00 0.00 0.00 37 1004.0
20260504201015 76 203 7.0 15.0 0.00 0.00 0.00 35 1004.1
20260504200015 75 248 4.0 7.0 0.00 0.00 0.00 36 1004.2
20260504195016 76 248 6.0 10.0 0.00 0.00 0.00 40 1004.4
20260504194015 76 293 2.0 6.0 0.00 0.00 0.00 38 1004.4
20260504193016 75 270 2.0 5.0 0.00 0.00 0.00 38 1004.6
20260504192015 75 338 3.0 4.0 0.00 0.00 0.00 36 1004.8
20260504191015 76 225 4.0 9.0 0.00 0.00 0.00 35 1004.9
20260504190016 75 203 6.0 11.0 0.00 0.00 0.00 36 1005.0
20260504185015 74 203 3.0 6.0 0.00 0.00 0.00 39 1005.0
20260504184035 75 225 3.0 7.0 0.00 0.00 0.00 42 1005.2
20260504183016 74 203 7.0 12.0 0.00 0.00 0.00 39 1005.4
20260504182035 74 270 4.0 8.0 0.00 0.00 0.00 42 1005.5
20260504181035 73 315 4.0 10.0 0.00 0.00 0.00 41 1005.5
20260504180016 72 203 3.0 5.0 0.00 0.00 0.00 44 1005.6
20260504175016 74 270 2.0 4.0 0.00 0.00 0.00 48 1005.7
20260504174015 73 293 4.0 7.0 0.00 0.00 0.00 44 1005.8
20260504173015 73 225 3.0 4.0 0.00 0.00 0.00 46 1005.9
20260504172015 72 293 4.0 7.0 0.00 0.00 0.00 50 1005.8
20260504171015 73 135 1.0 2.0 0.00 0.00 0.00 46 1005.9
20260504151015 67 225 3.0 8.0 0.00 0.00 0.00 49 1006.9
20260504141017 63 180 5.0 9.0 0.00 0.00 0.00 52 1006.8